Year,Month,Day,Hour,Minute,Value (Times are PST for temperature in C)
2006,08,10,00,00,15.20
2006,08,10,00,01,15.20
2006,08,10,00,02,15.20
2006,08,10,00,03,15.20
2006,08,10,00,04,15.20
2006,08,10,00,05,15.20
2006,08,10,00,06,15.20
2006,08,10,00,07,15.20
2006,08,10,00,08,15.20
2006,08,10,00,09,15.10
2006,08,10,00,10,15.10
2006,08,10,00,11,15.10
2006,08,10,00,12,15.10
2006,08,10,00,13,15.10
2006,08,10,00,14,15.10
2006,08,10,00,15,15.10
2006,08,10,00,16,15.10
2006,08,10,00,17,15.00
2006,08,10,00,18,15.00
2006,08,10,00,19,15.00
2006,08,10,00,20,15.00
2006,08,10,00,21,15.00
2006,08,10,00,22,15.00
2006,08,10,00,23,15.00
2006,08,10,00,24,15.00
2006,08,10,00,25,15.00
2006,08,10,00,26,15.00
2006,08,10,00,27,14.90
2006,08,10,00,28,14.90
2006,08,10,00,29,14.90
2006,08,10,00,30,14.90
2006,08,10,00,31,14.90
2006,08,10,00,32,14.90
2006,08,10,00,33,14.90
2006,08,10,00,34,14.90
2006,08,10,00,35,14.90
2006,08,10,00,36,14.90
2006,08,10,00,37,14.90
2006,08,10,00,38,14.80
2006,08,10,00,39,14.80
2006,08,10,00,40,14.80
2006,08,10,00,41,14.80
2006,08,10,00,42,14.80
2006,08,10,00,43,14.80
2006,08,10,00,44,14.80
2006,08,10,00,45,14.80
2006,08,10,00,46,14.80
2006,08,10,00,47,14.80
2006,08,10,00,48,14.80
2006,08,10,00,49,14.80
2006,08,10,00,50,14.80
2006,08,10,00,51,14.80
2006,08,10,00,52,14.80
2006,08,10,00,53,14.80
2006,08,10,00,54,14.90
2006,08,10,00,55,14.90
2006,08,10,00,56,14.90
2006,08,10,00,57,14.90
2006,08,10,00,58,14.90
2006,08,10,00,59,15.00
2006,08,10,01,00,15.00
2006,08,10,01,01,15.00
2006,08,10,01,02,15.00
2006,08,10,01,03,15.00
2006,08,10,01,04,15.00
2006,08,10,01,05,15.00
2006,08,10,01,06,15.00
2006,08,10,01,07,15.00
2006,08,10,01,08,15.00
2006,08,10,01,09,15.00
2006,08,10,01,10,15.00
2006,08,10,01,11,15.00
2006,08,10,01,12,15.00
2006,08,10,01,13,15.00
2006,08,10,01,14,14.90
2006,08,10,01,15,14.90
2006,08,10,01,16,14.90
2006,08,10,01,17,14.90
2006,08,10,01,18,14.90
2006,08,10,01,19,14.90
2006,08,10,01,20,14.90
2006,08,10,01,21,14.80
2006,08,10,01,22,14.80
2006,08,10,01,23,14.80
2006,08,10,01,24,14.80
2006,08,10,01,25,14.80
2006,08,10,01,26,14.80
2006,08,10,01,27,14.70
2006,08,10,01,28,14.70
2006,08,10,01,29,14.70
2006,08,10,01,30,14.60
2006,08,10,01,31,14.60
2006,08,10,01,32,14.50
2006,08,10,01,33,14.50
2006,08,10,01,34,14.40
2006,08,10,01,35,14.40
2006,08,10,01,36,14.40
2006,08,10,01,37,14.30
2006,08,10,01,38,14.30
2006,08,10,01,39,14.30
2006,08,10,01,40,14.30
2006,08,10,01,41,14.20
2006,08,10,01,42,14.20
2006,08,10,01,43,14.20
2006,08,10,01,44,14.20
2006,08,10,01,45,14.20
2006,08,10,01,46,14.20
2006,08,10,01,47,14.20
2006,08,10,01,48,14.20
2006,08,10,01,49,14.20
2006,08,10,01,50,14.20
2006,08,10,01,51,14.20
2006,08,10,01,52,14.20
2006,08,10,01,53,14.20
2006,08,10,01,54,14.20
2006,08,10,01,55,14.20
2006,08,10,01,56,14.20
2006,08,10,01,57,14.20
2006,08,10,01,58,14.20
2006,08,10,01,59,14.20
2006,08,10,02,00,14.30
2006,08,10,02,01,14.30
2006,08,10,02,02,14.30
2006,08,10,02,03,14.30
2006,08,10,02,04,14.30
2006,08,10,02,05,14.30
2006,08,10,02,06,14.30
2006,08,10,02,07,14.40
2006,08,10,02,08,14.40
2006,08,10,02,09,14.40
2006,08,10,02,10,14.40
2006,08,10,02,11,14.50
2006,08,10,02,12,14.50
2006,08,10,02,13,14.50
2006,08,10,02,14,14.50
2006,08,10,02,15,14.50
2006,08,10,02,16,14.60
2006,08,10,02,17,14.60
2006,08,10,02,18,14.60
2006,08,10,02,19,14.60
2006,08,10,02,20,14.60
2006,08,10,02,21,14.60
2006,08,10,02,22,14.60
2006,08,10,02,23,14.70
2006,08,10,02,24,14.70
2006,08,10,02,25,14.70
2006,08,10,02,26,14.70
2006,08,10,02,27,14.70
2006,08,10,02,28,14.80
2006,08,10,02,29,14.80
2006,08,10,02,30,14.80
2006,08,10,02,31,14.80
2006,08,10,02,32,14.80
2006,08,10,02,33,14.80
2006,08,10,02,34,14.80
2006,08,10,02,35,14.80
2006,08,10,02,36,14.90
2006,08,10,02,37,14.90
2006,08,10,02,38,14.90
2006,08,10,02,39,14.90
2006,08,10,02,40,15.00
2006,08,10,02,41,15.00
2006,08,10,02,42,15.00
2006,08,10,02,43,15.00
2006,08,10,02,44,15.00
2006,08,10,02,45,15.00
2006,08,10,02,46,15.10
2006,08,10,02,47,15.10
2006,08,10,02,48,15.10
2006,08,10,02,49,15.10
2006,08,10,02,50,15.10
2006,08,10,02,51,15.10
2006,08,10,02,52,15.10
2006,08,10,02,53,15.20
2006,08,10,02,54,15.20
2006,08,10,02,55,15.20
2006,08,10,02,56,15.20
2006,08,10,02,57,15.20
2006,08,10,02,58,15.20
2006,08,10,02,59,15.20
2006,08,10,03,00,15.20
2006,08,10,03,01,15.20
2006,08,10,03,02,15.20
2006,08,10,03,03,15.20
2006,08,10,03,04,15.20
2006,08,10,03,05,15.20
2006,08,10,03,06,15.20
2006,08,10,03,07,15.20
2006,08,10,03,08,15.20
2006,08,10,03,09,15.20
2006,08,10,03,10,15.20
2006,08,10,03,11,15.20
2006,08,10,03,12,15.20
2006,08,10,03,13,15.20
2006,08,10,03,14,15.20
2006,08,10,03,15,15.20
2006,08,10,03,16,15.20
2006,08,10,03,17,15.20
2006,08,10,03,18,15.20
2006,08,10,03,19,15.20
2006,08,10,03,20,15.20
2006,08,10,03,21,15.20
2006,08,10,03,22,15.20
2006,08,10,03,23,15.20
2006,08,10,03,24,15.20
2006,08,10,03,25,15.20
2006,08,10,03,26,15.20
2006,08,10,03,27,15.20
2006,08,10,03,28,15.20
2006,08,10,03,29,15.20
2006,08,10,03,30,15.20
2006,08,10,03,31,15.20
2006,08,10,03,32,15.20
2006,08,10,03,33,15.20
2006,08,10,03,34,15.20
2006,08,10,03,35,15.20
2006,08,10,03,36,15.20
2006,08,10,03,37,15.20
2006,08,10,03,38,15.30
2006,08,10,03,39,15.30
2006,08,10,03,40,15.30
2006,08,10,03,41,15.20
2006,08,10,03,42,15.20
2006,08,10,03,43,15.20
2006,08,10,03,44,15.20
2006,08,10,03,45,15.20
2006,08,10,03,46,15.20
2006,08,10,03,47,15.20
2006,08,10,03,48,15.20
2006,08,10,03,49,15.20
2006,08,10,03,50,15.10
2006,08,10,03,51,15.10
2006,08,10,03,52,15.10
2006,08,10,03,53,15.10
2006,08,10,03,54,15.10
2006,08,10,03,55,15.10
2006,08,10,03,56,15.10
2006,08,10,03,57,15.10
2006,08,10,03,58,15.00
2006,08,10,03,59,15.10
2006,08,10,04,00,15.10
2006,08,10,04,01,15.10
2006,08,10,04,02,15.10
2006,08,10,04,03,15.10
2006,08,10,04,04,15.10
2006,08,10,04,05,15.10
2006,08,10,04,06,15.00
2006,08,10,04,07,15.00
2006,08,10,04,08,15.00
2006,08,10,04,09,15.00
2006,08,10,04,10,15.00
2006,08,10,04,11,15.00
2006,08,10,04,12,15.00
2006,08,10,04,13,15.00
2006,08,10,04,14,15.00
2006,08,10,04,15,15.00
2006,08,10,04,16,15.00
2006,08,10,04,17,15.00
2006,08,10,04,18,15.00
2006,08,10,04,19,15.00
2006,08,10,04,20,15.00
2006,08,10,04,21,15.00
2006,08,10,04,22,15.00
2006,08,10,04,23,15.00
2006,08,10,04,24,15.00
2006,08,10,04,25,15.00
2006,08,10,04,26,15.00
2006,08,10,04,27,15.00
2006,08,10,04,28,15.00
2006,08,10,04,29,15.00
2006,08,10,04,30,15.00
2006,08,10,04,31,14.90
2006,08,10,04,32,15.00
2006,08,10,04,33,14.90
2006,08,10,04,34,14.90
2006,08,10,04,35,14.90
2006,08,10,04,36,14.90
2006,08,10,04,37,14.90
2006,08,10,04,38,14.90
2006,08,10,04,39,14.90
2006,08,10,04,40,14.90
2006,08,10,04,41,14.90
2006,08,10,04,42,14.90
2006,08,10,04,43,14.90
2006,08,10,04,44,14.90
2006,08,10,04,45,14.90
2006,08,10,04,46,14.90
2006,08,10,04,47,14.90
2006,08,10,04,48,14.90
2006,08,10,04,49,14.90
2006,08,10,04,50,14.90
2006,08,10,04,51,14.90
2006,08,10,04,52,14.90
2006,08,10,04,53,14.80
2006,08,10,04,54,14.80
2006,08,10,04,55,14.80
2006,08,10,04,56,14.80
2006,08,10,04,57,14.80
2006,08,10,04,58,14.80
2006,08,10,04,59,14.80
2006,08,10,05,00,14.80
2006,08,10,05,01,14.80
2006,08,10,05,02,14.80
2006,08,10,05,03,14.80
2006,08,10,05,04,14.80
2006,08,10,05,05,14.80
2006,08,10,05,06,14.80
2006,08,10,05,07,14.80
2006,08,10,05,08,14.90
2006,08,10,05,09,14.90
2006,08,10,05,10,14.90
2006,08,10,05,11,14.90
2006,08,10,05,12,14.90
2006,08,10,05,13,14.90
2006,08,10,05,14,14.90
2006,08,10,05,15,14.90
2006,08,10,05,16,14.90
2006,08,10,05,17,14.90
2006,08,10,05,18,14.80
2006,08,10,05,19,14.80
2006,08,10,05,20,14.80
2006,08,10,05,21,14.80
2006,08,10,05,22,14.80
2006,08,10,05,23,14.80
2006,08,10,05,24,14.80
2006,08,10,05,25,14.80
2006,08,10,05,26,14.80
2006,08,10,05,27,14.80
2006,08,10,05,28,14.80
2006,08,10,05,29,14.80
2006,08,10,05,30,14.80
2006,08,10,05,31,14.80
2006,08,10,05,32,14.80
2006,08,10,05,33,14.70
2006,08,10,05,34,14.70
2006,08,10,05,35,14.70
2006,08,10,05,36,14.70
2006,08,10,05,37,14.80
2006,08,10,05,38,14.70
2006,08,10,05,39,14.80
2006,08,10,05,40,14.80
2006,08,10,05,41,14.80
2006,08,10,05,42,14.80
2006,08,10,05,43,14.80
2006,08,10,05,44,14.80
2006,08,10,05,45,14.80
2006,08,10,05,46,14.80
2006,08,10,05,47,14.80
2006,08,10,05,48,14.80
2006,08,10,05,49,14.80
2006,08,10,05,50,14.80
2006,08,10,05,51,14.80
2006,08,10,05,52,14.80
2006,08,10,05,53,14.80
2006,08,10,05,54,14.80
2006,08,10,05,55,14.80
2006,08,10,05,56,14.80
2006,08,10,05,57,14.80
2006,08,10,05,58,14.80
2006,08,10,05,59,14.80
2006,08,10,06,00,14.80
2006,08,10,06,01,14.80
2006,08,10,06,02,14.80
2006,08,10,06,03,14.80
2006,08,10,06,04,14.80
2006,08,10,06,05,14.80
2006,08,10,06,06,14.80
2006,08,10,06,07,14.80
2006,08,10,06,08,14.80
2006,08,10,06,09,14.80
2006,08,10,06,10,14.80
2006,08,10,06,11,14.80
2006,08,10,06,12,14.80
2006,08,10,06,13,14.80
2006,08,10,06,14,14.80
2006,08,10,06,15,14.80
2006,08,10,06,16,14.80
2006,08,10,06,17,14.80
2006,08,10,06,18,14.80
2006,08,10,06,19,14.80
2006,08,10,06,20,14.80
2006,08,10,06,21,14.80
2006,08,10,06,22,14.80
2006,08,10,06,23,14.80
2006,08,10,06,24,14.80
2006,08,10,06,25,14.80
2006,08,10,06,26,14.80
2006,08,10,06,27,14.80
2006,08,10,06,28,14.80
2006,08,10,06,29,14.80
2006,08,10,06,30,14.80
2006,08,10,06,31,14.80
2006,08,10,06,32,14.80
2006,08,10,06,33,14.80
2006,08,10,06,34,14.80
2006,08,10,06,35,14.80
2006,08,10,06,36,14.80
2006,08,10,06,37,14.80
2006,08,10,06,38,14.80
2006,08,10,06,39,14.70
2006,08,10,06,40,14.70
2006,08,10,06,41,14.60
2006,08,10,06,42,14.60
2006,08,10,06,43,14.50
2006,08,10,06,44,14.50
2006,08,10,06,45,14.50
2006,08,10,06,46,14.40
2006,08,10,06,47,14.40
2006,08,10,06,48,14.30
2006,08,10,06,49,14.30
2006,08,10,06,50,14.20
2006,08,10,06,51,14.20
2006,08,10,06,52,14.20
2006,08,10,06,53,14.20
2006,08,10,06,54,14.10
2006,08,10,06,55,14.10
2006,08,10,06,56,14.00
2006,08,10,06,57,14.00
2006,08,10,06,58,14.00
2006,08,10,06,59,14.00
2006,08,10,07,00,13.90
2006,08,10,07,01,13.90
2006,08,10,07,02,13.80
2006,08,10,07,03,13.70
2006,08,10,07,04,13.70
2006,08,10,07,05,13.70
2006,08,10,07,06,13.70
2006,08,10,07,07,13.70
2006,08,10,07,08,13.70
2006,08,10,07,09,13.70
2006,08,10,07,10,13.70
2006,08,10,07,11,13.60
2006,08,10,07,12,13.60
2006,08,10,07,13,13.60
2006,08,10,07,14,13.60
2006,08,10,07,15,13.60
2006,08,10,07,16,13.60
2006,08,10,07,17,13.60
2006,08,10,07,18,13.60
2006,08,10,07,19,13.50
2006,08,10,07,20,13.60
2006,08,10,07,21,13.60
2006,08,10,07,22,13.60
2006,08,10,07,23,13.60
2006,08,10,07,24,13.60
2006,08,10,07,25,13.60
2006,08,10,07,26,13.60
2006,08,10,07,27,13.60
2006,08,10,07,28,13.60
2006,08,10,07,29,13.60
2006,08,10,07,30,13.60
2006,08,10,07,31,13.60
2006,08,10,07,32,13.70
2006,08,10,07,33,13.70
2006,08,10,07,34,13.70
2006,08,10,07,35,13.70
2006,08,10,07,36,13.60
2006,08,10,07,37,13.60
2006,08,10,07,38,13.60
2006,08,10,07,39,13.50
2006,08,10,07,40,13.50
2006,08,10,07,41,13.50
2006,08,10,07,42,13.50
2006,08,10,07,43,13.50
2006,08,10,07,44,13.50
2006,08,10,07,45,13.50
2006,08,10,07,46,13.50
2006,08,10,07,47,13.60
2006,08,10,07,48,13.60
2006,08,10,07,49,13.60
2006,08,10,07,50,13.60
2006,08,10,07,51,13.70
2006,08,10,07,52,13.70
2006,08,10,07,53,13.70
2006,08,10,07,54,13.70
2006,08,10,07,55,13.70
2006,08,10,07,56,13.70
2006,08,10,07,57,13.70
2006,08,10,07,58,13.70
2006,08,10,07,59,13.70
2006,08,10,08,00,13.70
2006,08,10,08,01,13.70
2006,08,10,08,02,13.70
2006,08,10,08,03,13.70
2006,08,10,08,04,13.70
2006,08,10,08,05,13.70
2006,08,10,08,06,13.70
2006,08,10,08,07,13.70
2006,08,10,08,08,13.70
2006,08,10,08,09,13.70
2006,08,10,08,10,13.70
2006,08,10,08,11,13.70
2006,08,10,08,12,13.70
2006,08,10,08,13,13.70
2006,08,10,08,14,13.70
2006,08,10,08,15,13.70
2006,08,10,08,16,13.70
2006,08,10,08,17,13.80
2006,08,10,08,18,13.80
2006,08,10,08,19,13.80
2006,08,10,08,20,13.80
2006,08,10,08,21,13.80
2006,08,10,08,22,13.80
2006,08,10,08,23,13.90
2006,08,10,08,24,13.90
2006,08,10,08,25,13.90
2006,08,10,08,26,13.90
2006,08,10,08,27,14.00
2006,08,10,08,28,14.00
2006,08,10,08,29,14.00
2006,08,10,08,30,14.10
2006,08,10,08,31,14.10
2006,08,10,08,32,14.10
2006,08,10,08,33,14.20
2006,08,10,08,34,14.10
2006,08,10,08,35,14.20
2006,08,10,08,36,14.20
2006,08,10,08,37,14.20
2006,08,10,08,38,14.20
2006,08,10,08,39,14.20
2006,08,10,08,40,14.20
2006,08,10,08,41,14.20
2006,08,10,08,42,14.20
2006,08,10,08,43,14.20
2006,08,10,08,44,14.20
2006,08,10,08,45,14.20
2006,08,10,08,46,14.20
2006,08,10,08,47,14.20
2006,08,10,08,48,14.20
2006,08,10,08,49,14.20
2006,08,10,08,50,14.30
2006,08,10,08,51,14.30
2006,08,10,08,52,14.30
2006,08,10,08,53,14.30
2006,08,10,08,54,14.30
2006,08,10,08,55,14.30
2006,08,10,08,56,14.30
2006,08,10,08,57,14.40
2006,08,10,08,58,14.40
2006,08,10,08,59,14.50
2006,08,10,09,00,14.50
2006,08,10,09,01,14.50
2006,08,10,09,02,14.60
2006,08,10,09,03,14.60
2006,08,10,09,04,14.60
2006,08,10,09,05,14.60
2006,08,10,09,06,14.60
2006,08,10,09,07,14.60
2006,08,10,09,08,14.60
2006,08,10,09,09,14.60
2006,08,10,09,10,14.60
2006,08,10,09,11,14.60
2006,08,10,09,12,14.60
2006,08,10,09,13,14.60
2006,08,10,09,14,14.60
2006,08,10,09,15,14.60
2006,08,10,09,16,14.70
2006,08,10,09,17,14.70
2006,08,10,09,18,14.70
2006,08,10,09,19,14.70
2006,08,10,09,20,14.70
2006,08,10,09,21,14.70
2006,08,10,09,22,14.70
2006,08,10,09,23,14.70
2006,08,10,09,24,14.70
2006,08,10,09,25,14.70
2006,08,10,09,26,14.70
2006,08,10,09,27,14.80
2006,08,10,09,28,14.80
2006,08,10,09,29,14.80
2006,08,10,09,30,14.80
2006,08,10,09,31,14.80
2006,08,10,09,32,14.80
2006,08,10,09,33,14.80
2006,08,10,09,34,14.80
2006,08,10,09,35,14.80
2006,08,10,09,36,14.80
2006,08,10,09,37,14.80
2006,08,10,09,38,14.90
2006,08,10,09,39,14.90
2006,08,10,09,40,15.00
2006,08,10,09,41,15.00
2006,08,10,09,42,15.00
2006,08,10,09,43,15.00
2006,08,10,09,44,15.00
2006,08,10,09,45,14.90
2006,08,10,09,46,14.90
2006,08,10,09,47,14.90
2006,08,10,09,48,15.00
2006,08,10,09,49,15.00
2006,08,10,09,50,15.00
2006,08,10,09,51,15.10
2006,08,10,09,52,15.10
2006,08,10,09,53,15.20
2006,08,10,09,54,15.20
2006,08,10,09,55,15.20
2006,08,10,09,56,15.20
2006,08,10,09,57,15.20
2006,08,10,09,58,15.30
2006,08,10,09,59,15.20
2006,08,10,10,00,15.20
2006,08,10,10,01,15.20
2006,08,10,10,02,15.20
2006,08,10,10,03,15.20
2006,08,10,10,04,15.20
2006,08,10,10,05,15.20
2006,08,10,10,06,15.30
2006,08,10,10,07,15.30
2006,08,10,10,08,15.30
2006,08,10,10,09,15.30
2006,08,10,10,10,15.30
2006,08,10,10,11,15.30
2006,08,10,10,12,15.40
2006,08,10,10,13,15.50
2006,08,10,10,14,15.60
2006,08,10,10,15,15.60
2006,08,10,10,16,15.60
2006,08,10,10,17,15.70
2006,08,10,10,18,15.70
2006,08,10,10,19,15.70
2006,08,10,10,20,15.80
2006,08,10,10,21,15.80
2006,08,10,10,22,15.80
2006,08,10,10,23,15.90
2006,08,10,10,24,16.00
2006,08,10,10,25,16.10
2006,08,10,10,26,16.20
2006,08,10,10,27,16.20
2006,08,10,10,28,16.20
2006,08,10,10,29,16.30
2006,08,10,10,30,16.40
2006,08,10,10,31,16.40
2006,08,10,10,32,16.40
2006,08,10,10,33,16.50
2006,08,10,10,34,16.60
2006,08,10,10,35,16.70
2006,08,10,10,36,16.70
2006,08,10,10,37,16.70
2006,08,10,10,38,16.60
2006,08,10,10,39,16.50
2006,08,10,10,40,16.40
2006,08,10,10,41,16.40
2006,08,10,10,42,16.40
2006,08,10,10,43,16.40
2006,08,10,10,44,16.40
2006,08,10,10,45,16.50
2006,08,10,10,46,16.60
2006,08,10,10,47,16.60
2006,08,10,10,48,16.60
2006,08,10,10,49,16.50
2006,08,10,10,50,16.40
2006,08,10,10,51,16.30
2006,08,10,10,52,16.10
2006,08,10,10,53,16.00
2006,08,10,10,54,15.80
2006,08,10,10,55,15.70
2006,08,10,10,56,15.60
2006,08,10,10,57,15.50
2006,08,10,10,58,15.50
2006,08,10,10,59,15.50
2006,08,10,11,00,15.60
2006,08,10,11,01,15.60
2006,08,10,11,02,15.50
2006,08,10,11,03,15.50
2006,08,10,11,04,15.40
2006,08,10,11,05,15.30
2006,08,10,11,06,15.30
2006,08,10,11,07,15.30
2006,08,10,11,08,15.30
2006,08,10,11,09,15.30
2006,08,10,11,10,15.30
2006,08,10,11,11,15.30
2006,08,10,11,12,15.40
2006,08,10,11,13,15.50
2006,08,10,11,14,15.50
2006,08,10,11,15,15.50
2006,08,10,11,16,15.50
2006,08,10,11,17,15.50
2006,08,10,11,18,15.50
2006,08,10,11,19,15.40
2006,08,10,11,20,15.30
2006,08,10,11,21,15.30
2006,08,10,11,22,15.30
2006,08,10,11,23,15.40
2006,08,10,11,24,15.40
2006,08,10,11,25,15.40
2006,08,10,11,26,15.30
2006,08,10,11,27,15.30
2006,08,10,11,28,15.30
2006,08,10,11,29,15.30
2006,08,10,11,30,15.30
2006,08,10,11,31,15.30
2006,08,10,11,32,15.30
2006,08,10,11,33,15.40
2006,08,10,11,34,15.40
2006,08,10,11,35,15.40
2006,08,10,11,36,15.40
2006,08,10,11,37,15.50
2006,08,10,11,38,15.40
2006,08,10,11,39,15.40
2006,08,10,11,40,15.50
2006,08,10,11,41,15.50
2006,08,10,11,42,15.50
2006,08,10,11,43,15.50
2006,08,10,11,44,15.50
2006,08,10,11,45,15.50
2006,08,10,11,46,15.70
2006,08,10,11,47,15.80
2006,08,10,11,48,15.80
2006,08,10,11,49,15.80
2006,08,10,11,50,15.80
2006,08,10,11,51,15.80
2006,08,10,11,52,15.80
2006,08,10,11,53,15.90
2006,08,10,11,54,15.90
2006,08,10,11,55,15.90
2006,08,10,11,56,15.90
2006,08,10,11,57,15.90
2006,08,10,11,58,15.90
2006,08,10,11,59,15.90
2006,08,10,12,00,15.80
2006,08,10,12,01,15.90
2006,08,10,12,02,16.10
2006,08,10,12,03,16.10
2006,08,10,12,04,16.20
2006,08,10,12,05,16.30
2006,08,10,12,06,16.30
2006,08,10,12,07,16.40
2006,08,10,12,08,16.40
2006,08,10,12,09,16.50
2006,08,10,12,10,16.60
2006,08,10,12,11,16.60
2006,08,10,12,12,16.70
2006,08,10,12,13,16.80
2006,08,10,12,14,16.90
2006,08,10,12,15,16.90
2006,08,10,12,16,16.90
2006,08,10,12,17,16.90
2006,08,10,12,18,16.80
2006,08,10,12,19,16.80
2006,08,10,12,20,16.80
2006,08,10,12,21,16.80
2006,08,10,12,22,16.70
2006,08,10,12,23,16.60
2006,08,10,12,24,16.50
2006,08,10,12,25,16.40
2006,08,10,12,26,16.40
2006,08,10,12,27,16.40
2006,08,10,12,28,16.40
2006,08,10,12,29,16.50
2006,08,10,12,30,16.60
2006,08,10,12,31,16.70
2006,08,10,12,32,16.70
2006,08,10,12,33,16.70
2006,08,10,12,34,16.70
2006,08,10,12,35,16.70
2006,08,10,12,36,16.80
2006,08,10,12,37,16.90
2006,08,10,12,38,17.00
2006,08,10,12,39,17.00
2006,08,10,12,40,17.00
2006,08,10,12,41,17.00
2006,08,10,12,42,17.10
2006,08,10,12,43,17.20
2006,08,10,12,44,17.20
2006,08,10,12,45,17.20
2006,08,10,12,46,17.30
2006,08,10,12,47,17.30
2006,08,10,12,48,17.30
2006,08,10,12,49,17.30
2006,08,10,12,50,17.30
2006,08,10,12,51,17.30
2006,08,10,12,52,17.40
2006,08,10,12,53,17.50
2006,08,10,12,54,17.50
2006,08,10,12,55,17.50
2006,08,10,12,56,17.70
2006,08,10,12,57,17.70
2006,08,10,12,58,17.80
2006,08,10,12,59,17.80
2006,08,10,13,00,17.70
2006,08,10,13,01,17.70
2006,08,10,13,02,17.70
2006,08,10,13,03,17.70
2006,08,10,13,04,17.60
2006,08,10,13,05,17.60
2006,08,10,13,06,17.50
2006,08,10,13,07,17.50
2006,08,10,13,08,17.40
2006,08,10,13,09,17.30
2006,08,10,13,10,17.30
2006,08,10,13,11,17.30
2006,08,10,13,12,17.30
2006,08,10,13,13,17.30
2006,08,10,13,14,17.20
2006,08,10,13,15,17.20
2006,08,10,13,16,17.20
2006,08,10,13,17,17.30
2006,08,10,13,18,17.30
2006,08,10,13,19,17.30
2006,08,10,13,20,17.30
2006,08,10,13,21,17.30
2006,08,10,13,22,17.30
2006,08,10,13,23,17.30
2006,08,10,13,24,17.30
2006,08,10,13,25,17.40
2006,08,10,13,26,17.50
2006,08,10,13,27,17.50
2006,08,10,13,28,17.50
2006,08,10,13,29,17.50
2006,08,10,13,30,17.50
2006,08,10,13,31,17.50
2006,08,10,13,32,17.60
2006,08,10,13,33,17.60
2006,08,10,13,34,17.60
2006,08,10,13,35,17.70
2006,08,10,13,36,17.70
2006,08,10,13,37,17.60
2006,08,10,13,38,17.60
2006,08,10,13,39,17.60
2006,08,10,13,40,17.60
2006,08,10,13,41,17.70
2006,08,10,13,42,17.70
2006,08,10,13,43,17.80
2006,08,10,13,44,17.90
2006,08,10,13,45,17.90
2006,08,10,13,46,17.90
2006,08,10,13,47,18.00
2006,08,10,13,48,18.10
2006,08,10,13,49,18.10
2006,08,10,13,50,18.20
2006,08,10,13,51,18.20
2006,08,10,13,52,18.10
2006,08,10,13,53,17.90
2006,08,10,13,54,17.90
2006,08,10,13,55,17.90
2006,08,10,13,56,17.90
2006,08,10,13,57,17.90
2006,08,10,13,58,17.80
2006,08,10,13,59,17.80
2006,08,10,14,00,17.80
2006,08,10,14,01,17.80
2006,08,10,14,02,17.80
2006,08,10,14,03,17.80
2006,08,10,14,04,17.70
2006,08,10,14,05,17.70
2006,08,10,14,06,17.60
2006,08,10,14,07,17.60
2006,08,10,14,08,17.50
2006,08,10,14,09,17.60
2006,08,10,14,10,17.70
2006,08,10,14,11,17.80
2006,08,10,14,12,17.90
2006,08,10,14,13,18.00
2006,08,10,14,14,18.10
2006,08,10,14,15,18.10
2006,08,10,14,16,18.20
2006,08,10,14,17,18.20
2006,08,10,14,18,18.20
2006,08,10,14,19,18.20
2006,08,10,14,20,18.20
2006,08,10,14,21,18.20
2006,08,10,14,22,18.20
2006,08,10,14,23,18.20
2006,08,10,14,24,18.20
2006,08,10,14,25,18.30
2006,08,10,14,26,18.30
2006,08,10,14,27,18.40
2006,08,10,14,28,18.40
2006,08,10,14,29,18.50
2006,08,10,14,30,18.60
2006,08,10,14,31,18.70
2006,08,10,14,32,18.90
2006,08,10,14,33,18.90
2006,08,10,14,34,18.90
2006,08,10,14,35,18.90
2006,08,10,14,36,18.90
2006,08,10,14,37,18.90
2006,08,10,14,38,18.80
2006,08,10,14,39,18.80
2006,08,10,14,40,18.70
2006,08,10,14,41,18.70
2006,08,10,14,42,18.60
2006,08,10,14,43,18.50
2006,08,10,14,44,18.50
2006,08,10,14,45,18.60
2006,08,10,14,46,18.60
2006,08,10,14,47,18.70
2006,08,10,14,48,18.60
2006,08,10,14,49,18.60
2006,08,10,14,50,18.70
2006,08,10,14,51,18.90
2006,08,10,14,52,18.90
2006,08,10,14,53,19.10
2006,08,10,14,54,19.20
2006,08,10,14,55,19.40
2006,08,10,14,56,19.50
2006,08,10,14,57,19.60
2006,08,10,14,58,19.60
2006,08,10,14,59,19.50
2006,08,10,15,00,19.50
2006,08,10,15,01,19.50
2006,08,10,15,02,19.50
2006,08,10,15,03,19.50
2006,08,10,15,04,19.50
2006,08,10,15,05,19.40
2006,08,10,15,06,19.40
2006,08,10,15,07,19.40
2006,08,10,15,08,19.30
2006,08,10,15,09,19.10
2006,08,10,15,10,18.90
2006,08,10,15,11,18.90
2006,08,10,15,12,18.90
2006,08,10,15,13,18.90
2006,08,10,15,14,18.90
2006,08,10,15,15,19.00
2006,08,10,15,16,19.10
2006,08,10,15,17,19.00
2006,08,10,15,18,18.90
2006,08,10,15,19,18.80
2006,08,10,15,20,18.80
2006,08,10,15,21,18.90
2006,08,10,15,22,18.90
2006,08,10,15,23,19.10
2006,08,10,15,24,19.10
2006,08,10,15,25,19.10
2006,08,10,15,26,19.10
2006,08,10,15,27,19.10
2006,08,10,15,28,19.10
2006,08,10,15,29,19.10
2006,08,10,15,30,19.10
2006,08,10,15,31,19.10
2006,08,10,15,32,19.10
2006,08,10,15,33,19.10
2006,08,10,15,34,19.20
2006,08,10,15,35,19.20
2006,08,10,15,36,19.20
2006,08,10,15,37,19.10
2006,08,10,15,38,19.10
2006,08,10,15,39,19.10
2006,08,10,15,40,19.10
2006,08,10,15,41,19.10
2006,08,10,15,42,19.10
2006,08,10,15,43,19.10
2006,08,10,15,44,19.10
2006,08,10,15,45,19.20
2006,08,10,15,46,19.30
2006,08,10,15,47,19.40
2006,08,10,15,48,19.50
2006,08,10,15,49,19.60
2006,08,10,15,50,19.70
2006,08,10,15,51,19.70
2006,08,10,15,52,19.70
2006,08,10,15,53,19.70
2006,08,10,15,54,19.60
2006,08,10,15,55,19.50
2006,08,10,15,56,19.40
2006,08,10,15,57,19.50
2006,08,10,15,58,19.50
2006,08,10,15,59,19.50
2006,08,10,16,00,19.50
2006,08,10,16,01,19.60
2006,08,10,16,02,19.70
2006,08,10,16,03,19.80
2006,08,10,16,04,19.80
2006,08,10,16,05,19.90
2006,08,10,16,06,19.90
2006,08,10,16,07,19.80
2006,08,10,16,08,19.70
2006,08,10,16,09,19.60
2006,08,10,16,10,19.60
2006,08,10,16,11,19.60
2006,08,10,16,12,19.60
2006,08,10,16,13,19.60
2006,08,10,16,14,19.50
2006,08,10,16,15,19.50
2006,08,10,16,16,19.40
2006,08,10,16,17,19.30
2006,08,10,16,18,19.30
2006,08,10,16,19,19.40
2006,08,10,16,20,19.40
2006,08,10,16,21,19.30
2006,08,10,16,22,19.40
2006,08,10,16,23,19.40
2006,08,10,16,24,19.40
2006,08,10,16,25,19.40
2006,08,10,16,26,19.30
2006,08,10,16,27,19.20
2006,08,10,16,28,19.20
2006,08,10,16,29,19.40
2006,08,10,16,30,19.40
2006,08,10,16,31,19.40
2006,08,10,16,32,19.50
2006,08,10,16,33,19.50
2006,08,10,16,34,19.50
2006,08,10,16,35,19.50
2006,08,10,16,36,19.40
2006,08,10,16,37,19.40
2006,08,10,16,38,19.50
2006,08,10,16,39,19.50
2006,08,10,16,40,19.60
2006,08,10,16,41,19.60
2006,08,10,16,42,19.70
2006,08,10,16,43,19.70
2006,08,10,16,44,19.60
2006,08,10,16,45,19.50
2006,08,10,16,46,19.50
2006,08,10,16,47,19.40
2006,08,10,16,48,19.50
2006,08,10,16,49,19.40
2006,08,10,16,50,19.40
2006,08,10,16,51,19.40
2006,08,10,16,52,19.40
2006,08,10,16,53,19.40
2006,08,10,16,54,19.40
2006,08,10,16,55,19.30
2006,08,10,16,56,19.30
2006,08,10,16,57,19.30
2006,08,10,16,58,19.30
2006,08,10,16,59,19.30
2006,08,10,17,00,19.30
2006,08,10,17,01,19.30
2006,08,10,17,02,19.30
2006,08,10,17,03,19.30
2006,08,10,17,04,19.30
2006,08,10,17,05,19.20
2006,08,10,17,06,19.20
2006,08,10,17,07,19.10
2006,08,10,17,08,19.10
2006,08,10,17,09,19.10
2006,08,10,17,10,19.10
2006,08,10,17,11,19.10
2006,08,10,17,12,19.10
2006,08,10,17,13,19.20
2006,08,10,17,14,19.20
2006,08,10,17,15,19.20
2006,08,10,17,16,19.20
2006,08,10,17,17,19.20
2006,08,10,17,18,19.30
2006,08,10,17,19,19.40